Drogheda, Ireland

12:41 PM GMT on January 19, 2018 (GMT +0000)
Drogheda

Weather History for 03969 - October, 2013

Change the Weather History Date:

Friday, October 11, 2013

  Actual Average Record
Temperature  
Mean Temperature 46 °F -  
Max Temperature 56 °F 54 °F - ()
Min Temperature 37 °F 44 °F - ()
Degree Days  
Heating Degree Days 18    
Moisture  
Dew Point 43 °F    
Average Humidity 79    
Maximum Humidity 88    
Minimum Humidity 68    
Precipitation  
Precipitation 0.00 in 0.09 in - ()
Sea Level Pressure  
Sea Level Pressure 30.39 in    
Wind  
Wind Speed 11 mph ()    
Max Wind Speed 21 mph    
Max Gust Speed -    
Visibility 6.7 miles    
Events      
T = Trace of Precipitation, MM = Missing Value Source: Averaged Metar Reports

Daily Weather History Graph

Daily Weather History Graph

Search for Another Location

Airport or City:

Trip Planner

Search our weather history database for the weather conditions in past years. The results will help you decide how hot, cold, wet, or windy it might be!

Date:

Astronomy

Oct. 11, 2013 Rise Set
Actual Time 7:44 AM IST 6:37 PM IST
Civil Twilight 7:09 AM IST 7:12 PM IST
Nautical Twilight 6:29 AM IST 7:52 PM IST
Astronomical Twilight 5:48 AM IST 8:33 PM IST
Moon 2:44 PM IST (10/11) 11:40 PM IST (10/11)
Length of Visible Light 12h 02m
Length of Day
10h 52m
Waxing Crescent, 44% of the Moon is Illuminated
Oct 11
Waxing Crescent
Oct 12
First Quarter
Oct 19
Full
Oct 27
Last Quarter
Nov 3
New

Hourly Weather History & Observations

Time (IST) Temp. Windchill Dew Point Humidity Pressure Visibility Wind Dir Wind Speed Gust Speed Precip Events Conditions
12:00 AM 42.8 °F 38.0 °F 37.4 °F 81% 30.39 in 6.2 mi NNW 8.1 mph - N/A   Mostly Cloudy
12:30 AM 42.8 °F 38.6 °F 37.4 °F 81% 30.39 in 6.2 mi NNW 6.9 mph - N/A   Mostly Cloudy
1:00 AM 42 °F - 38 °F 81% 30.41 in 31 mi North 6.7 mph - -   Mostly Cloudy
1:00 AM 41.0 °F 36.4 °F 37.4 °F 87% 30.39 in 6.2 mi North 6.9 mph - N/A   Mostly Cloudy
1:30 AM 41.0 °F 38.0 °F 37.4 °F 87% 30.39 in 6.2 mi NW 4.6 mph - N/A   Mostly Cloudy
2:00 AM 44.6 °F 41.4 °F 37.4 °F 76% 30.39 in 6.2 mi NNW 5.8 mph - N/A   Scattered Clouds
2:30 AM 42.8 °F 37.5 °F 35.6 °F 76% 30.39 in 6.2 mi NNE 9.2 mph - N/A   Partly Cloudy
3:00 AM 41.0 °F 34.7 °F 37.4 °F 87% 30.39 in 6.2 mi NNE 10.4 mph - N/A   Partly Cloudy
3:30 AM 42.8 °F 36.2 °F 35.6 °F 76% 30.36 in 6.2 mi NE 12.7 mph - N/A   Partly Cloudy
4:00 AM 44.6 °F 38.4 °F 37.4 °F 76% 30.36 in 6.2 mi NE 12.7 mph - N/A   Mostly Cloudy
4:30 AM 46.4 °F 41.9 °F 37.4 °F 71% 30.36 in 6.2 mi NNE 9.2 mph - N/A   Mostly Cloudy
5:00 AM 46.4 °F 40.1 °F 37.4 °F 71% 30.36 in 6.2 mi NE 15.0 mph - N/A   Mostly Cloudy
5:30 AM 46.4 °F 41.1 °F 37.4 °F 71% 30.36 in 6.2 mi NE 11.5 mph - N/A   Mostly Cloudy
6:00 AM 48.2 °F - 39.2 °F 71% 30.36 in 6.2 mi NE 12.7 mph - N/A   Mostly Cloudy
6:30 AM 46.4 °F 41.5 °F 39.2 °F 76% 30.36 in 6.2 mi NNE 10.4 mph - N/A   Mostly Cloudy
7:00 AM 47 °F - 40 °F 69% 30.39 in 31 mi NNE 11.2 mph - -   Mostly Cloudy
7:00 AM 46.4 °F 41.5 °F 39.2 °F 76% 30.36 in 6.2 mi NNE 10.4 mph - N/A   Mostly Cloudy
7:30 AM 46.4 °F 41.1 °F 41.0 °F 81% 30.39 in 6.2 mi NNE 11.5 mph - N/A   Mostly Cloudy
8:00 AM 46.4 °F 41.1 °F 41.0 °F 81% 30.39 in 6.2 mi NE 11.5 mph - N/A   Mostly Cloudy
8:30 AM 48.2 °F - 41.0 °F 76% 30.39 in 6.2 mi NE 11.5 mph - N/A   Mostly Cloudy
9:00 AM 48.2 °F - 42.8 °F 82% 30.39 in 6.2 mi NE 13.8 mph - N/A   Mostly Cloudy
9:30 AM 50.0 °F - 42.8 °F 76% 30.39 in 6.2 mi NNE 13.8 mph - N/A   Mostly Cloudy
10:00 AM 50.0 °F - 44.6 °F 82% 30.39 in 6.2 mi NE 17.3 mph - N/A   Mostly Cloudy
10:30 AM 51.8 °F - 44.6 °F 76% 30.39 in 6.2 mi NE 18.4 mph - N/A   Mostly Cloudy
11:00 AM 51.8 °F - 44.6 °F 76% 30.39 in 6.2 mi NE 17.3 mph - N/A   Mostly Cloudy
11:30 AM 51.8 °F - 44.6 °F 76% 30.39 in 6.2 mi NE 17.3 mph - N/A   Mostly Cloudy
12:00 PM 53.6 °F - 46.4 °F 77% 30.39 in 6.2 mi NE 20.7 mph - N/A   Mostly Cloudy
12:30 PM 53.6 °F - 46.4 °F 77% 30.39 in 6.2 mi NE 19.6 mph - N/A   Mostly Cloudy
1:00 PM 55 °F - 47 °F 68% 30.41 in 16 mi NE 17.9 mph - -   Mostly Cloudy
1:00 PM 55.4 °F - 48.2 °F 77% 30.39 in 6.2 mi NE 19.6 mph - N/A   Scattered Clouds
1:30 PM 55.4 °F - 48.2 °F 77% 30.39 in 6.2 mi ENE 19.6 mph - N/A   Mostly Cloudy
2:00 PM 53.6 °F - 48.2 °F 82% 30.39 in 6.2 mi NE 15.0 mph - N/A   Mostly Cloudy
2:30 PM 53.6 °F - 48.2 °F 82% 30.39 in 6.2 mi NE 13.8 mph - N/A   Mostly Cloudy
3:00 PM 55.4 °F - 48.2 °F 77% 30.39 in 6.2 mi NE 15.0 mph - N/A   Mostly Cloudy
3:30 PM 55.4 °F - 48.2 °F 77% 30.39 in 6.2 mi NE 18.4 mph - N/A   Mostly Cloudy
4:00 PM 53.6 °F - 46.4 °F 77% 30.39 in 6.2 mi NE 13.8 mph - N/A   Mostly Cloudy
4:30 PM 53.6 °F - 48.2 °F 82% 30.39 in 6.2 mi NE 13.8 mph - N/A   Mostly Cloudy
5:00 PM 53.6 °F - 48.2 °F 82% 30.39 in 6.2 mi ENE 10.4 mph - N/A   Mostly Cloudy
5:30 PM 53.6 °F - 48.2 °F 82% 30.39 in 6.2 mi NE 12.7 mph - N/A   Mostly Cloudy
6:00 PM 53.6 °F - 48.2 °F 82% 30.39 in 6.2 mi NE 9.2 mph - N/A   Mostly Cloudy
6:30 PM 51.8 °F - 48.2 °F 88% 30.39 in 6.2 mi NE 10.4 mph - N/A   Mostly Cloudy
7:00 PM 53 °F - 47 °F 74% 30.40 in 19 mi NE 13.4 mph - -   Mostly Cloudy
7:00 PM 53.6 °F - 48.2 °F 82% 30.39 in 6.2 mi NE 12.7 mph - N/A   Mostly Cloudy
7:30 PM 51.8 °F - 46.4 °F 82% 30.39 in 6.2 mi NE 12.7 mph - N/A   Mostly Cloudy
8:00 PM 51.8 °F - 46.4 °F 82% 30.39 in 6.2 mi NE 12.7 mph - N/A   Mostly Cloudy
8:30 PM 51.8 °F - 46.4 °F 82% 30.39 in 6.2 mi NE 9.2 mph - N/A   Scattered Clouds
9:00 PM 51.8 °F - 46.4 °F 82% 30.39 in 6.2 mi NE 11.5 mph - N/A   Scattered Clouds
9:30 PM 51.8 °F - 48.2 °F 88% 30.39 in 6.2 mi NE 12.7 mph - N/A   Mostly Cloudy
10:00 PM 51.8 °F - 48.2 °F 88% 30.39 in 6.2 mi NE 12.7 mph - N/A   Mostly Cloudy
10:30 PM 51.8 °F - 46.4 °F 82% 30.39 in 6.2 mi ENE 15.0 mph - N/A   Mostly Cloudy
11:00 PM 51.8 °F - 46.4 °F 82% 30.36 in 6.2 mi ENE 13.8 mph - N/A   Mostly Cloudy
11:30 PM 50.0 °F - 46.4 °F 87% 30.36 in 6.2 mi ENE 13.8 mph - N/A   Scattered Clouds